Location: Harstad
(68.8030°N, 16.5460°E)
Time: 08:33:58
(UTC+01:00)

Envisat - Visible Passes

Search period start: 21 March 2019 00:00
Search period end: 31 March 2019 00:00
Orbit: 764 x 766 km, 98.2° (Epoch: 21 March)

Date Brightness Start Highest point End Pass type
(mag) Time Alt. Az. Time Alt. Az. Time Alt. Az.
21 Mar 6.0 20:25:25 10° WSW 20:28:26 16° WNW 20:31:29 10° NW visible
22 Mar 5.7 19:47:04 10° SW 19:51:04 23° W 19:55:05 10° NNW visible
23 Mar 5.0 19:09:14 10° SSW 19:13:50 33° W 19:18:28 10° NNW visible
23 Mar 6.2 20:52:40 10° W 20:54:31 12° WNW 20:56:21 10° NW visible
24 Mar 5.9 20:13:39 10° WSW 20:17:02 18° WNW 20:20:25 10° NW visible
25 Mar 5.5 19:35:29 10° SW 19:39:41 25° W 19:43:56 10° NNW visible
26 Mar 6.1 20:40:38 10° W 20:43:03 13° WNW 20:45:30 10° NW visible
27 Mar 5.8 20:01:57 10° SW 20:05:37 20° W 20:09:18 10° NNW visible
29 Mar 6.0 20:28:44 10° WSW 20:31:37 15° WNW 20:34:31 10° NW visible
30 Mar 5.8 19:50:19 10° SW 19:54:14 22° W 19:58:10 10° NNW visible
